When you browse on this site, cookies collect data to enhance your experience and personalize the content and advertising you see.
Visit our Privacy Policy to learn more. By continuing to use the site, you agree to this use of cookies and data.
  • En España
  • Lista de países
  • Para 7 días
  • Temperatura del agua
  • Mapa Satelital
  • El tiempo en el mapa
  • Informadores
  • user-avatar
    Iniciar sesión

    Tiempo cada hora Jablanac

    Hoy, 21 Abril, Domingo

    Tiempo Temperatura Precipitaciones Viento Presión Humedad
    00:00 +12°C° 0 mm 4 mps 762 mmHg 64%
    01:00 +11°C° 0 mm 3 mps 762 mmHg 58%
    02:00 +11°C° 0 mm 3 mps 762 mmHg 57%
    03:00 +11°C° 0 mm 3 mps 762 mmHg 56%
    04:00 +11°C° 0 mm 3 mps 761 mmHg 54%
    05:00 +12°C° 0 mm 3 mps 761 mmHg 54%
    06:00 +14°C° 0 mm 2 mps 761 mmHg 53%
    07:00 +15°C° 0 mm 2 mps 761 mmHg 52%
    08:00 +17°C° 0 mm 2 mps 761 mmHg 46%
    09:00 +21°C° 0 mm 1 mps 760 mmHg 39%
    10:00 +23°C° 0 mm 1 mps 760 mmHg 32%
    11:00 +24°C° 0 mm 2 mps 760 mmHg 33%
    12:00 +24°C° 0 mm 2 mps 760 mmHg 34%
    13:00 +24°C° 0 mm 3 mps 760 mmHg 34%
    14:00 +22°C° 0 mm 3 mps 759 mmHg 40%
    15:00 +22°C° 0 mm 3 mps 759 mmHg 45%
    16:00 +21°C° 0 mm 2 mps 758 mmHg 51%
    17:00 +19°C° 0 mm 3 mps 758 mmHg 63%
    18:00 +17°C° 0 mm 3 mps 758 mmHg 76%
    19:00 +14°C° 0 mm 3 mps 758 mmHg 89%
    20:00 +14°C° 0 mm 3 mps 758 mmHg 90%
    21:00 +13°C° 0 mm 3 mps 758 mmHg 92%
    22:00 +14°C° 0 mm 2 mps 759 mmHg 94%
    23:00 +14°C° 0 mm 2 mps 758 mmHg 93%

    Mañana, 22 Abril, Lunes

    Tiempo Temperatura Precipitaciones Viento Presión Humedad
    00:00 +13°C° 0 mm 2 mps 758 mmHg 92%
    01:00 +13°C° 0 mm 2 mps 758 mmHg 91%
    02:00 +12°C° 0 mm 3 mps 758 mmHg 92%
    03:00 +12°C° 0 mm 4 mps 757 mmHg 93%
    04:00 +11°C° 0 mm 4 mps 757 mmHg 94%
    05:00 +12°C° 0 mm 5 mps 757 mmHg 90%
    06:00 +13°C° 0 mm 5 mps 756 mmHg 86%
    07:00 +14°C° 0 mm 5 mps 756 mmHg 83%
    08:00 +15°C° 0 mm 5 mps 755 mmHg 75%
    09:00 +17°C° 0 mm 5 mps 755 mmHg 68%
    10:00 +19°C° 0 mm 5 mps 755 mmHg 60%
    11:00 +20°C° 0 mm 5 mps 754 mmHg 59%
    12:00 +21°C° 0 mm 5 mps 753 mmHg 59%
    13:00 +21°C° 0 mm 5 mps 753 mmHg 58%
    14:00 +21°C° 0 mm 5 mps 752 mmHg 60%
    15:00 +20°C° 0 mm 5 mps 752 mmHg 62%
    16:00 +20°C° 0 mm 5 mps 751 mmHg 64%
    17:00 +19°C° 0 mm 5 mps 751 mmHg 70%
    18:00 +16°C° 0 mm 5 mps 751 mmHg 75%
    19:00 +15°C° 0 mm 5 mps 750 mmHg 80%
    20:00 +15°C° 0.1 mm 6 mps 750 mmHg 82%
    21:00 +14°C° 0.1 mm 7 mps 750 mmHg 84%
    22:00 +13°C° 0.1 mm 8 mps 750 mmHg 86%
    23:00 +13°C° 1.4 mm 9 mps 750 mmHg 89%

    Pasado mañana, 23 Abril, Martes

    Tiempo Temperatura Precipitaciones Viento Presión Humedad
    00:00 +13°C° 1.4 mm 10 mps 749 mmHg 92%
    01:00 +12°C° 1.4 mm 10 mps 749 mmHg 95%
    02:00 +13°C° 1.5 mm 11 mps 748 mmHg 95%
    03:00 +13°C° 1.5 mm 12 mps 748 mmHg 96%
    04:00 +13°C° 1.5 mm 13 mps 747 mmHg 96%
    05:00 +13°C° 0.3 mm 13 mps 747 mmHg 95%
    06:00 +14°C° 0.3 mm 13 mps 747 mmHg 94%
    07:00 +14°C° 0.3 mm 13 mps 747 mmHg 93%
    08:00 +14°C° 0.1 mm 12 mps 747 mmHg 92%
    09:00 +15°C° 0.1 mm 12 mps 748 mmHg 91%
    10:00 +16°C° 0.1 mm 11 mps 748 mmHg 90%
    11:00 +16°C° 0.5 mm 11 mps 748 mmHg 91%
    12:00 +16°C° 0.5 mm 10 mps 748 mmHg 93%
    13:00 +16°C° 0.5 mm 10 mps 748 mmHg 94%
    14:00 +17°C° 0.6 mm 9 mps 748 mmHg 93%
    15:00 +17°C° 0.6 mm 8 mps 748 mmHg 92%
    16:00 +17°C° 0.6 mm 8 mps 748 mmHg 91%
    17:00 +17°C° 1.4 mm 6 mps 748 mmHg 93%
    18:00 +16°C° 1.4 mm 5 mps 748 mmHg 94%
    19:00 +17°C° 1.4 mm 3 mps 748 mmHg 95%
    20:00 +16°C° 0.7 mm 3 mps 749 mmHg 96%
    21:00 +16°C° 0.7 mm 3 mps 750 mmHg 97%
    22:00 +16°C° 0.7 mm 3 mps 751 mmHg 98%
    23:00 +16°C° 0.6 mm 3 mps 751 mmHg 97%

    24 Abril, Miércoles

    Tiempo Temperatura Precipitaciones Viento Presión Humedad
    00:00 +15°C° 0.6 mm 4 mps 752 mmHg 97%
    01:00 +15°C° 0.6 mm 4 mps 752 mmHg 97%
    02:00 +15°C° 0.7 mm 4 mps 752 mmHg 97%
    03:00 +15°C° 0.7 mm 5 mps 752 mmHg 97%
    04:00 +15°C° 0.7 mm 5 mps 753 mmHg 96%
    05:00 +15°C° 0.4 mm 6 mps 753 mmHg 97%
    06:00 +16°C° 0.4 mm 7 mps 754 mmHg 97%
    07:00 +16°C° 0.4 mm 8 mps 754 mmHg 97%
    08:00 +16°C° 0.1 mm 8 mps 755 mmHg 95%
    09:00 +17°C° 0.1 mm 8 mps 755 mmHg 93%
    10:00 +18°C° 0.1 mm 8 mps 756 mmHg 91%
    11:00 +18°C° 0.1 mm 7 mps 756 mmHg 89%
    12:00 +18°C° 0.1 mm 7 mps 756 mmHg 88%
    13:00 +20°C° 0.1 mm 7 mps 756 mmHg 86%
    14:00 +20°C° 0 mm 7 mps 756 mmHg 85%
    15:00 +20°C° 0 mm 6 mps 756 mmHg 84%
    16:00 +20°C° 0 mm 6 mps 756 mmHg 83%
    17:00 +19°C° 0 mm 5 mps 757 mmHg 87%
    18:00 +17°C° 0 mm 5 mps 757 mmHg 91%
    19:00 +16°C° 0 mm 5 mps 757 mmHg 95%
    20:00 +16°C° 0 mm 5 mps 757 mmHg 94%
    21:00 +16°C° 0 mm 5 mps 758 mmHg 93%
    22:00 +15°C° 0 mm 5 mps 758 mmHg 92%
    23:00 +15°C° 0 mm 5 mps 758 mmHg 91%

    25 Abril, Jueves

    Tiempo Temperatura Precipitaciones Viento Presión Humedad
    00:00 +15°C° 0 mm 5 mps 758 mmHg 89%
    01:00 +15°C° 0 mm 5 mps 758 mmHg 88%
    02:00 +15°C° 0 mm 6 mps 758 mmHg 88%
    03:00 +15°C° 0 mm 6 mps 758 mmHg 88%
    04:00 +15°C° 0 mm 7 mps 758 mmHg 89%
    05:00 +16°C° 0 mm 6 mps 758 mmHg 87%
    06:00 +17°C° 0 mm 6 mps 758 mmHg 85%
    07:00 +17°C° 0 mm 6 mps 758 mmHg 83%
    08:00 +20°C° 0 mm 6 mps 758 mmHg 79%
    09:00 +21°C° 0 mm 6 mps 759 mmHg 76%
    10:00 +22°C° 0 mm 5 mps 759 mmHg 72%
    11:00 +23°C° 0 mm 5 mps 759 mmHg 71%
    12:00 +23°C° 0 mm 5 mps 759 mmHg 70%
    13:00 +23°C° 0 mm 5 mps 758 mmHg 69%
    14:00 +23°C° 0 mm 4 mps 758 mmHg 68%
    15:00 +23°C° 0 mm 4 mps 758 mmHg 68%
    16:00 +24°C° 0 mm 3 mps 757 mmHg 67%
    17:00 +22°C° 0 mm 3 mps 757 mmHg 74%
    18:00 +20°C° 0 mm 3 mps 757 mmHg 81%
    19:00 +19°C° 0 mm 3 mps 757 mmHg 89%
    20:00 +18°C° 0 mm 3 mps 757 mmHg 90%
    21:00 +17°C° 0 mm 3 mps 757 mmHg 92%
    22:00 +16°C° 0 mm 3 mps 757 mmHg 93%
    23:00 +16°C° 0 mm 3 mps 757 mmHg 91%

    26 Abril, Viernes

    Tiempo Temperatura Precipitaciones Viento Presión Humedad
    00:00 +15°C° 0 mm 4 mps 757 mmHg 89%
    01:00 +15°C° 0 mm 4 mps 757 mmHg 87%
    02:00 +15°C° 0 mm 4 mps 756 mmHg 87%
    03:00 +15°C° 0 mm 4 mps 756 mmHg 86%
    04:00 +14°C° 0 mm 4 mps 756 mmHg 86%
    05:00 +15°C° 0 mm 5 mps 756 mmHg 84%
    06:00 +16°C° 0 mm 6 mps 756 mmHg 83%
    07:00 +17°C° 0 mm 6 mps 756 mmHg 82%
    08:00 +19°C° 0 mm 6 mps 756 mmHg 80%
    09:00 +21°C° 0 mm 7 mps 756 mmHg 78%
    10:00 +22°C° 0 mm 7 mps 756 mmHg 75%
    11:00 +22°C° 0.1 mm 6 mps 756 mmHg 77%
    12:00 +22°C° 0.1 mm 6 mps 755 mmHg 79%
    13:00 +22°C° 0.1 mm 5 mps 755 mmHg 80%
    14:00 +22°C° 0.1 mm 5 mps 755 mmHg 84%
    15:00 +21°C° 0.1 mm 4 mps 754 mmHg 87%
    16:00 +20°C° 0.1 mm 3 mps 754 mmHg 91%
    17:00 +19°C° 0.4 mm 3 mps 754 mmHg 93%
    18:00 +19°C° 0.4 mm 3 mps 754 mmHg 95%
    19:00 +18°C° 0.4 mm 3 mps 754 mmHg 97%
    20:00 +18°C° 0.9 mm 3 mps 754 mmHg 96%
    21:00 +17°C° 0.9 mm 2 mps 755 mmHg 96%
    22:00 +17°C° 0.9 mm 2 mps 755 mmHg 96%
    23:00 +17°C° 0.3 mm 2 mps 755 mmHg 96%
    Mostrar más